Warning: Javascript must be enabled to use all the features on this page!


Page Loading - Please Wait...

Click to hideNews Bulletins

USGS 04189260 Blanchard River at Ottawa OH

PROVISIONAL DATA SUBJECT TO REVISION

Click to hidestation-specific text
Station operated in cooperation with the Village of Ottawa and the National Streamflow Information Program.
 04189260 Blanchard River at Ottawa, OH
 LOCATION.--Lat 41°01'01", long 84°02'49", Putnam County, OH, Hydrologic 
     Unit 04100008, on right bank at downstream side of Oak Street, 200 ft. upstream 
     of B&O railroad bridge, 800 ft. upstream of SR65 bridge, 1,200 ft. southeast of 
     intersection of SR65 and US RT224 in the village of Ottawa, OH.
 DRAINAGE AREA.--628 mi2.
 PERIOD OF RECORD.--October 2009 to current water year.
Want to learn more about areas near this gage that are inundated during flooding? See the USGS flood-inundation mapper.

Boating safety tips
Available Parameters Available Period
All 2 Available Parameters for this site
  
00060 Discharge 2009-10-01  2017-02-23
00065 Gage height 2016-10-26  2017-02-23

Graph
Graph w/ stats
Graph w/o stats
Graph w/ (up to 3) parms
Table
Tab-separated
Days  (7)
 

  -- or --
Begin date
 

End date
 

Summary of all available data for this site
Instantaneous-data availability statement
Gage height, feet
TIMEFeb 16Feb 17Feb 18Feb 19Feb 20Feb 21Feb 22Feb 23
00:00 EST9.12P  8.25P  7.61P  7.25P  7.06P  6.79P  6.64P  6.37P  
00:30 EST9.09P  8.24P  7.61P  7.25P  7.06P  6.78P  6.63P  6.36P  
01:00 EST9.07P  8.22P  7.60P  7.24P  7.05P  6.77P  6.64P  6.35P  
01:30 EST9.04P  8.20P  7.58P  7.23P  7.04P  6.77P  6.63P  6.34P  
02:00 EST9.03P  8.20P  7.58P  7.23P  7.03P  6.76P  6.63P  6.34P  
02:30 EST9.01P  8.18P  7.57P  7.22P  7.03P  6.76P  6.62P  6.33P  
03:00 EST8.99P  8.17P  7.56P  7.21P  7.02P  6.75P  6.62P  6.33P  
03:30 EST8.98P  8.15P  7.55P  7.21P  7.01P  6.74P  6.62P  6.31P  
04:00 EST8.96P  8.13P  7.54P  7.20P  7.00P  6.73P  6.62P  6.31P  
04:30 EST8.93P  8.12P  7.54P  7.20P  7.00P  6.73P  6.61P  6.30P  
05:00 EST8.92P  8.11P  7.53P  7.19P  6.99P  6.73P  6.61P   
05:30 EST8.90P  8.10P  7.52P  7.19P  6.98P  6.72P  6.61P   
06:00 EST8.89P  8.09P  7.51P  7.18P  6.98P  6.72P  6.60P   
06:30 EST8.86P  8.08P  7.50P  7.17P  6.97P  6.71P  6.60P   
07:00 EST8.85P  8.07P  7.50P  7.17P  6.97P  6.71P  6.59P   
07:30 EST8.83P  8.05P  7.49P  7.16P  6.96P  6.71P  6.59P   
08:00 EST8.81P  8.03P  7.48P  7.16P  6.96P  6.70P  6.59P   
08:30 EST8.80P  8.02P  7.48P  7.16P  6.95P  6.70P  6.59P   
09:00 EST8.78P  8.01P  7.46P  7.16P  6.94P  6.70P  6.59P   
09:30 EST8.76P  7.99P  7.46P  7.16P  6.94P  6.69P  6.58P   
10:00 EST8.73P  7.97P  7.45P  7.15P  6.93P  6.69P  6.58P   
10:30 EST8.72P  7.96P  7.45P  7.15P  6.93P  6.69P  6.58P   
11:00 EST8.69P  7.94P  7.43P  7.15P  6.93P  6.69P  6.57P   
11:30 EST8.68P  7.92P  7.43P  7.15P  6.92P  6.68P  6.57P   
12:00 EST8.67P  7.90P  7.42P  7.16P  6.92P  6.68P  6.56P   
12:30 EST8.65P  7.89P  7.42P  7.17P  6.91P  6.68P  6.56P   
13:00 EST8.62P  7.87P  7.41P  7.17P  6.91P  6.68P  6.55P   
13:30 EST8.61P  7.86P  7.40P  7.18P  6.91P  6.68P  6.55P   
14:00 EST8.59P  7.84P  7.39P  7.17P  6.89P  6.68P  6.54P   
14:30 EST8.57P  7.82P  7.38P  7.17P  6.90P  6.67P  6.53P   
15:00 EST8.55P  7.81P  7.38P  7.17P  6.89P  6.67P  6.53P   
15:30 EST8.54P  7.80P  7.37P  7.16P  6.88P  6.67P  6.52P   
16:00 EST8.51P  7.78P  7.37P  7.16P  6.88P  6.67P  6.51P   
16:30 EST8.50P  7.77P  7.36P  7.15P  6.87P  6.67P  6.50P   
17:00 EST8.48P  7.76P  7.34P  7.15P  6.87P  6.67P  6.49P   
17:30 EST8.47P  7.75P  7.34P  7.15P  6.86P  6.66P  6.49P   
18:00 EST8.45P  7.74P  7.33P  7.15P  6.86P  6.66P  6.48P   
18:30 EST8.43P  7.72P  7.32P  7.14P  6.85P  6.66P  6.47P   
19:00 EST8.41P  7.72P  7.32P  7.13P  6.85P  6.65P  6.46P   
19:30 EST8.39P  7.69P  7.31P  7.13P  6.84P  6.66P  6.45P   
20:00 EST8.37P  7.70P  7.30P  7.12P  6.83P  6.66P  6.44P   
20:30 EST8.35P  7.68P  7.30P  7.11P  6.83P  6.66P  6.43P   
21:00 EST8.34P  7.67P  7.29P  7.11P  6.82P  6.66P  6.42P   
21:30 EST8.33P  7.66P  7.28P  7.10P  6.82P  6.65P  6.41P   
22:00 EST8.31P  7.65P  7.28P  7.09P  6.81P  6.64P  6.40P   
22:30 EST8.29P  7.64P  7.28P  7.08P  6.80P  6.64P  6.39P   
23:00 EST8.28P  7.64P  7.26P  7.07P  6.80P  6.64P  6.39P   
23:30 EST8.27P  7.62P  7.26P  7.07P  6.79P  6.64P  6.38P   
COUNT4848484848484810
MAX9.128.257.617.257.066.796.646.37
MIN8.277.627.267.076.796.646.386.30

Explanation
  P  Provisional data subject to revision.